Weather History for Provincetown, MA

Change the Weather History Date:

Friday, November 30, 2012

  Actual Average Record
Temperature  
Mean Temperature 38 °F -  
Max Temperature 42 °F 46 °F 59 °F (1954)
Min Temperature 35 °F 35 °F 26 °F (1955)
Degree Days  
Heating Degree Days 26    
Moisture  
Dew Point 27 °F    
Average Humidity 62    
Maximum Humidity 70    
Minimum Humidity 52    
Precipitation  
Precipitation 0.00 in - - ()
Sea Level Pressure  
Sea Level Pressure 30.34 in    
Wind  
Wind Speed 19 mph (NNW)    
Max Wind Speed 25 mph    
Max Gust Speed 33 mph    
Visibility 10 miles    
Events      
Averages and records for this station are not official NWS values.
T = Trace of Precipitation, MM = Missing Value Source: NWS Daily Summary

Daily Weather History Graph

Daily Weather History Graph

Search for Another Location

Airport:

Trip Planner

Search our weather history database for the weather conditions in past years. The results will help you decide how hot, cold, wet, or windy it might be!

Date:

Astronomy

Nov. 30, 2012 Rise Set
Actual Time 6:48 AM EST 4:10 PM EST
Civil Twilight 6:17 AM EST 4:41 PM EST
Nautical Twilight 5:43 AM EST 5:16 PM EST
Astronomical Twilight 5:09 AM EST 5:49 PM EST
Moon 6:02 PM EST (11/30) 8:18 AM EST (11/30)
Length of Visible Light 10h 23m
Length of Day
9h 21m
Waning Gibbous, 96% of the Moon is Illuminated
Nov 30
Waning Gibbous
Dec 6
Last Quarter
Dec 13
New
Dec 20
First Quarter
Dec 28
Full

Hourly Weather History & Observations

Time (EST) Temp. Windchill Dew Point Humidity Pressure Visibility Wind Dir Wind Speed Gust Speed Precip Events Conditions
12:15 AM 42.8 °F 33.8 °F 28.4 °F 57% 30.22 in 10.0 mi West 21.9 mph 33.4 mph N/A   Clear
12:35 AM 42.8 °F 33.1 °F 28.4 °F 57% 30.22 in 10.0 mi WSW 25.3 mph 29.9 mph N/A   Mostly Cloudy
1:15 AM 42.8 °F 33.5 °F 28.4 °F 57% 30.23 in 10.0 mi West 23.0 mph 29.9 mph N/A   Overcast
1:35 AM 42.8 °F 34.0 °F 28.4 °F 57% 30.24 in 10.0 mi West 20.7 mph 28.8 mph N/A   Overcast
1:55 AM 42.8 °F 33.5 °F 28.4 °F 57% 30.25 in 10.0 mi West 23.0 mph 28.8 mph N/A   Overcast
2:15 AM 42.8 °F 34.3 °F 28.4 °F 57% 30.26 in 10.0 mi West 19.6 mph 28.8 mph N/A   Overcast
2:35 AM 42.8 °F 34.5 °F 26.6 °F 53% 30.26 in 10.0 mi West 18.4 mph 26.5 mph N/A   Overcast
2:55 AM 42.8 °F 34.5 °F 28.4 °F 57% 30.27 in 10.0 mi West 18.4 mph 23.0 mph N/A   Overcast
3:15 AM 41.0 °F 31.1 °F 26.6 °F 57% 30.28 in 10.0 mi WNW 23.0 mph 27.6 mph N/A   Scattered Clouds
3:35 AM 39.2 °F 30.8 °F 26.6 °F 61% 30.29 in 10.0 mi NW 15.0 mph 25.3 mph N/A   Clear
4:15 AM 39.2 °F 31.2 °F 30.2 °F 70% 30.31 in 10.0 mi North 13.8 mph - N/A   Partly Cloudy
4:16 AM 39.2 °F 31.2 °F 30.2 °F 70% 30.31 in 10.0 mi North 13.8 mph - N/A   Partly Cloudy
4:35 AM 39.2 °F 31.2 °F 30.2 °F 70% 30.32 in 10.0 mi NNW 13.8 mph 18.4 mph N/A   Partly Cloudy
4:55 AM 39.2 °F 31.2 °F 30.2 °F 70% 30.33 in 10.0 mi NNW 13.8 mph 19.6 mph N/A   Mostly Cloudy
5:15 AM 39.2 °F 31.2 °F 30.2 °F 70% 30.34 in 10.0 mi North 13.8 mph 20.7 mph N/A   Mostly Cloudy
5:35 AM 37.4 °F 29.3 °F 28.4 °F 70% 30.34 in 10.0 mi North 12.7 mph 16.1 mph N/A   Mostly Cloudy
5:56 AM 37.4 °F 28.2 °F 28.4 °F 70% 30.36 in 10.0 mi North 16.1 mph 21.9 mph N/A   Overcast
6:15 AM 37.4 °F 28.9 °F 28.4 °F 70% 30.37 in 10.0 mi North 13.8 mph 21.9 mph N/A   Overcast
6:35 AM 37.4 °F 28.2 °F 28.4 °F 70% 30.38 in 10.0 mi North 16.1 mph 24.2 mph N/A   Mostly Cloudy
6:55 AM 37.4 °F 28.2 °F 24.8 °F 60% 30.39 in 10.0 mi North 16.1 mph 26.5 mph N/A   Clear
7:15 AM 37.4 °F 27.8 °F 24.8 °F 60% 30.40 in 10.0 mi North 17.3 mph 24.2 mph N/A   Clear
7:35 AM 37.4 °F 27.5 °F 21.2 °F 52% 30.40 in 10.0 mi North 18.4 mph 25.3 mph N/A   Clear
7:55 AM 37.4 °F 27.5 °F 21.2 °F 52% 30.42 in 10.0 mi North 18.4 mph 25.3 mph N/A   Scattered Clouds
8:15 AM 37.4 °F 28.5 °F 24.8 °F 60% 30.42 in 10.0 mi North 15.0 mph 23.0 mph N/A   Mostly Cloudy
8:35 AM 37.4 °F 28.9 °F 26.6 °F 65% 30.43 in 10.0 mi NNE 13.8 mph 18.4 mph N/A   Mostly Cloudy
9:15 AM 37.4 °F 28.5 °F 26.6 °F 65% 30.45 in 10.0 mi NNE 15.0 mph 23.0 mph N/A   Overcast
9:55 AM 35.6 °F 25.9 °F 24.8 °F 65% 30.47 in 10.0 mi NNE 16.1 mph 21.9 mph N/A   Overcast
10:15 AM 35.6 °F 27.1 °F 24.8 °F 65% 30.47 in 10.0 mi NNE 12.7 mph 20.7 mph N/A   Overcast
10:35 AM 35.6 °F 25.9 °F 24.8 °F 65% 30.47 in 10.0 mi NNE 16.1 mph 20.7 mph N/A   Overcast